LOT9006 LRTM-LUKK

Flight info

Callsign LOT9006
Flight time 0h 42m
Altitude 31000
Route DOKUD DCT BUSES
Aircraft B738/M-SDE2E3FGHIRWXY/LB1

Departure

Time 2026-05-04 14:38
Airport Târgu Mureş Transilvania International Airport (LRTM)

Arrival

Time 2026-05-04 15:21
Airport Chişinău International Airport (LUKK)
Time Latitude Longitude Altitude Speed Heading
2026-05-04 14:05 46.46783 24.42309 971 ft 0 kts 307°
2026-05-04 14:35 46.46786 24.42305 970 ft 3 kts 317°
2026-05-04 14:35 46.46833 24.42342 970 ft 15 kts 72°
2026-05-04 14:36 46.46862 24.42493 970 ft 10 kts 73°
2026-05-04 14:36 46.46915 24.42522 970 ft 9 kts 347°
2026-05-04 14:36 46.46976 24.42500 970 ft 8 kts 344°
2026-05-04 14:36 46.47003 24.42464 970 ft 0 kts 253°
2026-05-04 14:37 46.46979 24.42326 970 ft 49 kts 256°
2026-05-04 14:38 46.46810 24.41452 967 ft 128 kts 253°
2026-05-04 14:38 46.46505 24.39888 1118 ft 180 kts 256°
2026-05-04 14:38 46.46176 24.38260 2195 ft 168 kts 257°
2026-05-04 14:38 46.45858 24.36652 2905 ft 174 kts 257°
2026-05-04 14:39 46.45513 24.34847 3223 ft 198 kts 258°
2026-05-04 14:39 46.45135 24.32845 3715 ft 213 kts 257°
2026-05-04 14:39 46.44719 24.30721 4223 ft 228 kts 256°
2026-05-04 14:40 46.43429 24.26277 5223 ft 261 kts 229°
2026-05-04 14:40 46.41951 24.24681 5746 ft 277 kts 203°
2026-05-04 14:40 46.40060 24.23999 6399 ft 285 kts 183°
2026-05-04 14:40 46.38086 24.24192 7152 ft 286 kts 165°
2026-05-04 14:41 46.36256 24.25247 7870 ft 285 kts 141°
2026-05-04 14:41 46.34931 24.27238 8704 ft 279 kts 119°
2026-05-04 14:41 46.33697 24.32390 10283 ft 274 kts 94°
2026-05-04 14:42 46.34473 24.37713 11495 ft 282 kts 57°
2026-05-04 14:42 46.35572 24.40066 12272 ft 284 kts 55°
2026-05-04 14:42 46.36567 24.42541 13020 ft 288 kts 64°
2026-05-04 14:43 46.37248 24.45235 13774 ft 291 kts 71°
2026-05-04 14:43 46.37808 24.48072 14508 ft 296 kts 72°
2026-05-04 14:43 46.38334 24.50941 15246 ft 300 kts 72°
2026-05-04 14:43 46.38876 24.53881 15995 ft 304 kts 72°
2026-05-04 14:44 46.39426 24.56799 16738 ft 308 kts 72°
2026-05-04 14:44 46.40001 24.59797 17475 ft 311 kts 71°
2026-05-04 14:44 46.40585 24.62821 18179 ft 315 kts 71°
2026-05-04 14:44 46.41171 24.65847 18845 ft 319 kts 72°
2026-05-04 14:45 46.41774 24.68959 19506 ft 323 kts 72°
2026-05-04 14:45 46.42386 24.72125 20119 ft 329 kts 72°
2026-05-04 14:45 46.42997 24.75289 20756 ft 333 kts 72°
2026-05-04 14:45 46.43622 24.78538 21334 ft 338 kts 72°
2026-05-04 14:46 46.44255 24.81837 21931 ft 343 kts 72°
2026-05-04 14:46 46.44895 24.85176 22545 ft 346 kts 72°
2026-05-04 14:46 46.45536 24.88528 23075 ft 351 kts 72°
2026-05-04 14:46 46.46191 24.91962 23614 ft 356 kts 72°
2026-05-04 14:47 46.46845 24.95396 24150 ft 360 kts 72°
2026-05-04 14:47 46.47479 24.98942 24657 ft 365 kts 74°
2026-05-04 14:47 46.48062 25.02516 25088 ft 371 kts 75°
2026-05-04 14:47 46.48636 25.06190 25593 ft 374 kts 75°
2026-05-04 14:48 46.49198 25.09841 26044 ft 378 kts 75°
2026-05-04 14:48 46.49779 25.13596 26476 ft 382 kts 75°
2026-05-04 14:48 46.50357 25.17323 27010 ft 383 kts 75°
2026-05-04 14:48 46.50951 25.21134 27295 ft 391 kts 75°
2026-05-04 14:49 46.51559 25.25021 27687 ft 396 kts 75°
2026-05-04 14:49 46.52161 25.28871 28146 ft 398 kts 75°
2026-05-04 14:49 46.52769 25.32764 28663 ft 398 kts 75°
2026-05-04 14:49 46.53386 25.36717 29001 ft 403 kts 75°
2026-05-04 14:50 46.54001 25.40662 29428 ft 405 kts 75°
2026-05-04 14:50 46.54626 25.44687 29953 ft 405 kts 75°
2026-05-04 14:50 46.55242 25.48655 30234 ft 410 kts 75°
2026-05-04 14:50 46.55870 25.52711 30501 ft 410 kts 75°
2026-05-04 14:51 46.56482 25.56683 30762 ft 406 kts 75°
2026-05-04 14:51 46.57092 25.60656 31021 ft 399 kts 75°
2026-05-04 14:51 46.58309 25.68590 31106 ft 401 kts 75°
2026-05-04 14:52 46.59530 25.76574 31109 ft 409 kts 75°
2026-05-04 14:52 46.60773 25.84723 31106 ft 413 kts 75°
2026-05-04 14:53 46.62003 25.92876 31039 ft 413 kts 76°
2026-05-04 14:53 46.62627 25.97017 30765 ft 418 kts 76°
2026-05-04 14:53 46.63242 26.01113 30330 ft 418 kts 76°
2026-05-04 14:54 46.63853 26.05195 29797 ft 415 kts 76°
2026-05-04 14:54 46.64467 26.09309 29264 ft 411 kts 76°
2026-05-04 14:54 46.65065 26.13325 28739 ft 408 kts 76°
2026-05-04 14:54 46.65657 26.17317 28209 ft 405 kts 76°
2026-05-04 14:55 46.66251 26.21322 27681 ft 402 kts 76°
2026-05-04 14:55 46.66830 26.25242 27155 ft 398 kts 76°
2026-05-04 14:55 46.67403 26.29129 26626 ft 395 kts 76°
2026-05-04 14:55 46.67976 26.33024 26094 ft 392 kts 76°
2026-05-04 14:56 46.68543 26.36893 25572 ft 389 kts 75°
2026-05-04 14:56 46.69096 26.40674 25061 ft 386 kts 76°
2026-05-04 14:56 46.69649 26.44466 24594 ft 380 kts 75°
2026-05-04 14:56 46.70195 26.48214 24127 ft 376 kts 75°
2026-05-04 14:57 46.70736 26.51930 23674 ft 380 kts 75°
2026-05-04 14:57 46.71286 26.55710 23223 ft 383 kts 75°
2026-05-04 14:57 46.71831 26.59479 22764 ft 378 kts 75°
2026-05-04 14:57 46.72365 26.63177 22306 ft 373 kts 75°
2026-05-04 14:58 46.72886 26.66809 21862 ft 369 kts 76°
2026-05-04 14:58 46.73412 26.70476 21411 ft 366 kts 76°
2026-05-04 14:58 46.73930 26.74096 20966 ft 363 kts 76°
2026-05-04 14:58 46.74434 26.77622 20530 ft 359 kts 75°
2026-05-04 14:59 46.74942 26.81181 20078 ft 356 kts 76°
2026-05-04 14:59 46.75436 26.84656 19638 ft 352 kts 75°
2026-05-04 14:59 46.76412 26.91550 18745 ft 341 kts 75°
2026-05-04 15:00 46.76881 26.94872 18350 ft 335 kts 75°
2026-05-04 15:00 46.77345 26.98172 17994 ft 328 kts 75°
2026-05-04 15:00 46.77797 27.01378 17633 ft 324 kts 75°
2026-05-04 15:01 46.78695 27.07770 16935 ft 322 kts 75°
2026-05-04 15:01 46.79142 27.10966 16584 ft 320 kts 75°
2026-05-04 15:01 46.79585 27.14138 16226 ft 318 kts 75°
2026-05-04 15:01 46.80019 27.17260 15879 ft 316 kts 75°
2026-05-04 15:02 46.80454 27.20393 15526 ft 315 kts 75°
2026-05-04 15:02 46.80888 27.23526 15183 ft 313 kts 75°
2026-05-04 15:02 46.81313 27.26592 14828 ft 311 kts 75°
2026-05-04 15:02 46.81739 27.29679 14473 ft 310 kts 75°
2026-05-04 15:03 46.82162 27.32755 14117 ft 308 kts 75°
2026-05-04 15:03 46.82578 27.35782 13772 ft 306 kts 75°
2026-05-04 15:03 46.82995 27.38827 13421 ft 304 kts 75°
2026-05-04 15:03 46.83404 27.41814 13068 ft 303 kts 75°
2026-05-04 15:04 46.83816 27.44836 12712 ft 302 kts 75°
2026-05-04 15:04 46.84221 27.47803 12373 ft 300 kts 75°
2026-05-04 15:04 46.84628 27.50798 12023 ft 299 kts 75°
2026-05-04 15:04 46.85031 27.53768 11714 ft 296 kts 75°
2026-05-04 15:05 46.85419 27.56644 11461 ft 288 kts 75°
2026-05-04 15:05 46.85803 27.59492 11214 ft 283 kts 75°
2026-05-04 15:05 46.86179 27.62279 11046 ft 282 kts 75°
2026-05-04 15:05 46.86561 27.65106 11037 ft 283 kts 76°
2026-05-04 15:06 46.86942 27.67933 11037 ft 284 kts 76°
2026-05-04 15:06 46.87319 27.70736 11029 ft 284 kts 76°
2026-05-04 15:06 46.87700 27.73583 11036 ft 284 kts 76°
2026-05-04 15:07 46.88451 27.79216 11034 ft 283 kts 76°
2026-05-04 15:07 46.88831 27.82067 10813 ft 287 kts 76°
2026-05-04 15:07 46.89208 27.84905 10316 ft 288 kts 76°
2026-05-04 15:07 46.89588 27.87777 9936 ft 285 kts 76°
2026-05-04 15:08 46.89954 27.90584 9694 ft 277 kts 77°
2026-05-04 15:08 46.90176 27.93329 9446 ft 272 kts 83°
2026-05-04 15:08 46.90242 27.96078 9199 ft 267 kts 85°
2026-05-04 15:08 46.90274 27.98759 9027 ft 265 kts 84°
2026-05-04 15:09 46.90326 28.01450 9024 ft 267 kts 84°
2026-05-04 15:09 46.90400 28.04182 9022 ft 268 kts 83°
2026-05-04 15:09 46.90482 28.06877 9018 ft 268 kts 83°
2026-05-04 15:10 46.90660 28.12385 8438 ft 273 kts 83°
2026-05-04 15:10 46.90746 28.15125 8190 ft 266 kts 83°
2026-05-04 15:10 46.90907 28.20397 7703 ft 255 kts 84°
2026-05-04 15:11 46.90982 28.22931 7458 ft 250 kts 83°
2026-05-04 15:11 46.91072 28.25442 7214 ft 245 kts 82°
2026-05-04 15:11 46.91184 28.27910 6971 ft 240 kts 82°
2026-05-04 15:11 46.91277 28.30329 6722 ft 237 kts 83°
2026-05-04 15:12 46.91350 28.32690 6479 ft 233 kts 83°
2026-05-04 15:12 46.91415 28.35038 6235 ft 231 kts 83°
2026-05-04 15:12 46.91477 28.37376 5989 ft 230 kts 83°
2026-05-04 15:12 46.91538 28.39720 5741 ft 230 kts 84°
2026-05-04 15:13 46.91598 28.42045 5495 ft 230 kts 84°
2026-05-04 15:13 46.91658 28.44391 5255 ft 229 kts 84°
2026-05-04 15:13 46.91716 28.46714 5012 ft 229 kts 84°
2026-05-04 15:13 46.91774 28.49006 4775 ft 228 kts 84°
2026-05-04 15:14 46.91830 28.51303 4570 ft 223 kts 84°
2026-05-04 15:14 46.91885 28.53552 4367 ft 218 kts 84°
2026-05-04 15:14 46.91938 28.55729 4173 ft 214 kts 84°
2026-05-04 15:14 46.91990 28.57866 3980 ft 210 kts 84°
2026-05-04 15:15 46.92041 28.59991 3777 ft 206 kts 84°
2026-05-04 15:15 46.92090 28.62079 3572 ft 203 kts 84°
2026-05-04 15:15 46.92139 28.64121 3382 ft 201 kts 84°
2026-05-04 15:16 46.92233 28.68148 2996 ft 194 kts 84°
2026-05-04 15:16 46.92278 28.70089 2803 ft 190 kts 85°
2026-05-04 15:16 46.92361 28.73788 2482 ft 173 kts 85°
2026-05-04 15:17 46.92398 28.75459 2397 ft 156 kts 85°
2026-05-04 15:17 46.92465 28.78428 2050 ft 147 kts 84°
2026-05-04 15:17 46.92497 28.79868 1837 ft 141 kts 85°
2026-05-04 15:18 46.92520 28.81303 1665 ft 143 kts 86°
2026-05-04 15:18 46.92553 28.82751 1461 ft 141 kts 84°
2026-05-04 15:18 46.92600 28.84214 1282 ft 148 kts 84°
2026-05-04 15:19 46.92661 28.87174 881 ft 143 kts 85°
2026-05-04 15:19 46.92692 28.88606 701 ft 144 kts 88°
2026-05-04 15:19 46.92737 28.91531 407 ft 138 kts 84°
2026-05-04 15:20 46.92776 28.92780 337 ft 115 kts 85°
2026-05-04 15:20 46.92783 28.93622 316 ft 61 kts 86°
2026-05-04 15:20 46.92807 28.94226 300 ft 56 kts 88°
2026-05-04 15:20 46.92816 28.94771 287 ft 51 kts 87°
2026-05-04 15:21 46.92853 28.95097 282 ft 17 kts 27°
2026-05-04 15:21 46.92950 28.95105 283 ft 11 kts 356°
2026-05-04 15:21 46.92967 28.95103 283 ft 0 kts 356°
2026-05-04 15:22 46.92986 28.95097 283 ft 7 kts 338°
2026-05-04 15:22 46.93021 28.94976 286 ft 19 kts 275°
2026-05-04 15:22 46.93075 28.94322 299 ft 47 kts 276°
2026-05-04 15:23 46.93120 28.93808 311 ft 50 kts 275°
2026-05-04 15:23 46.93152 28.93481 319 ft 18 kts 300°
2026-05-04 15:23 46.93250 28.93453 319 ft 14 kts
2026-05-04 15:23 46.93329 28.93512 318 ft 14 kts 83°
2026-05-04 15:24 46.93339 28.93718 314 ft 4 kts 26°
2026-05-04 15:24 46.93350 28.93724 314 ft 0 kts 12°
2026-05-04 15:25 46.93353 28.93725 314 ft 0 kts 12°
2026-05-04 15:25 46.93355 28.93726 314 ft 0 kts 12°